NUVIEW BRAVO

Last updated on Tue Sep 22 2026 00:03:16 GMT+0000 (Coordinated Universal Time)

1 62457U 24252D 26264.47260394 -.00000219 00000+0 00000+0 0 9995 2 62457 0.0644 157.6688 0001740 29.4281 260.3018 1.00272366 4752
UTC large
Height (km)
Speed (km/s)
/
Latitude / Longitude
Inclination (degrees)
Orbital Period (minutes)
Azimuth
Elevation
Range (km)
Doppler Factor

Next 0 passes for location: London (51.5072 / 0.1276)

No passes found over London.
NUVIEW BRAVO